York, NE

11:14 PM CST on December 15, 2019 (GMT -0600)
York Municipal

Weather History for KJYR - October, 2019

Change the Weather History Date:

Wednesday, October 9, 2019

  Actual Average Record
Temperature  
Mean Temperature 60 °F -  
Max Temperature 68 °F 65 °F 89 °F (1980)
Min Temperature 53 °F 40 °F 25 °F (1964)
Degree Days  
Heating Degree Days 4    
Growing Degree Days 10 (Base 50)    
Moisture  
Dew Point 52 °F    
Average Humidity 76    
Maximum Humidity 94    
Minimum Humidity 63    
Precipitation  
Precipitation 0.00 in - - ()
Sea Level Pressure  
Sea Level Pressure 29.79 in    
Wind  
Wind Speed 12 mph (SSE)    
Max Wind Speed 22 mph    
Max Gust Speed 28 mph    
Visibility 10 miles    
Events      
Averages and records for this station are not official NWS values.
T = Trace of Precipitation, MM = Missing Value Source: NWS Daily Summary

Daily Weather History Graph

Daily Weather History Graph

Search for Another Location

Airport or City:

Astronomy

Oct. 09, 2019 Rise Set
Actual Time 7:35 AM CDT 6:59 PM CDT
Civil Twilight 7:07 AM CDT 7:27 PM CDT
Nautical Twilight 6:35 AM CDT 7:58 PM CDT
Astronomical Twilight 6:04 AM CDT 8:30 PM CDT
Moon 5:34 PM CDT (10/9) 3:20 AM CDT (10/9)
Length of Visible Light 12h 19m
Length of Day
11h 24m
Waxing Gibbous, 85% of the Moon is Illuminated
Oct 9
Waxing Gibbous
Oct 13
Full
Oct 21
Last Quarter
Oct 27
New
Nov 4
First Quarter

Hourly Weather History & Observations

Time (CDT) Temp. Dew Point Humidity Pressure Visibility Wind Dir Wind Speed Gust Speed Precip Events Conditions
12:15 AM 57.2 °F 48.2 °F 72% 29.86 in 10.0 mi South 11.5 mph - N/A   Clear
12:35 AM 57.2 °F 48.2 °F 72% 29.85 in 10.0 mi South 12.7 mph - N/A   Clear
12:55 AM 57.2 °F 48.2 °F 72% 29.85 in 10.0 mi South 10.4 mph - N/A   Clear
1:15 AM 55.4 °F 48.2 °F 77% 29.84 in 10.0 mi South 11.5 mph - N/A   Clear
1:35 AM 55.4 °F 48.2 °F 77% 29.84 in 10.0 mi South 11.5 mph - N/A   Clear
1:55 AM 55.4 °F 48.2 °F 77% 29.83 in 10.0 mi South 11.5 mph - N/A   Clear
2:15 AM 55.4 °F 48.2 °F 77% 29.83 in 10.0 mi South 11.5 mph - N/A   Clear
2:35 AM 55.4 °F 48.2 °F 77% 29.82 in 10.0 mi South 13.8 mph - N/A   Clear
2:55 AM 55.4 °F 48.2 °F 77% 29.82 in 10.0 mi South 13.8 mph 17.3 mph N/A   Clear
3:15 AM 55.4 °F 48.2 °F 77% 29.82 in 10.0 mi South 11.5 mph - N/A   Clear
3:35 AM 55.4 °F 48.2 °F 77% 29.81 in 10.0 mi South 12.7 mph - N/A   Clear
3:55 AM 55.4 °F 48.2 °F 77% 29.81 in 10.0 mi South 11.5 mph - N/A   Clear
4:15 AM 57.2 °F 48.2 °F 72% 29.81 in 10.0 mi SSE 11.5 mph - N/A   Clear
4:35 AM 57.2 °F 48.2 °F 72% 29.80 in 10.0 mi SSE 12.7 mph - N/A   Clear
4:55 AM 57.2 °F 46.4 °F 67% 29.80 in 10.0 mi SSE 11.5 mph - N/A   Clear
5:15 AM 55.4 °F 46.4 °F 72% 29.80 in 10.0 mi South 13.8 mph 19.6 mph N/A   Clear
5:35 AM 55.4 °F 46.4 °F 72% 29.80 in 10.0 mi South 12.7 mph - N/A   Partly Cloudy
5:55 AM 57.2 °F 46.4 °F 67% 29.80 in 10.0 mi South 13.8 mph - N/A   Mostly Cloudy
6:15 AM 55.4 °F 46.4 °F 72% 29.80 in 10.0 mi South 11.5 mph - N/A   Mostly Cloudy
6:35 AM 55.4 °F 46.4 °F 72% 29.80 in 10.0 mi South 10.4 mph - N/A   Clear
6:55 AM 55.4 °F 46.4 °F 72% 29.80 in 10.0 mi SSE 10.4 mph - N/A   Clear
7:15 AM 55.4 °F 46.4 °F 72% 29.80 in 10.0 mi SSE 10.4 mph - N/A   Clear
7:35 AM 53.6 °F 46.4 °F 77% 29.80 in 10.0 mi SSE 10.4 mph - N/A   Clear
7:55 AM 53.6 °F 46.4 °F 77% 29.79 in 10.0 mi SSE 10.4 mph - N/A   Clear
8:15 AM 55.4 °F 46.4 °F 72% 29.80 in 10.0 mi SSE 10.4 mph - N/A   Clear
8:55 AM 59.0 °F 48.2 °F 67% 29.81 in 10.0 mi South 16.1 mph 25.3 mph N/A   Overcast
9:15 AM 59.0 °F 48.2 °F 67% 29.81 in 10.0 mi South 17.3 mph 24.2 mph N/A   Overcast
9:35 AM 60.8 °F 50.0 °F 68% 29.82 in 10.0 mi South 20.7 mph 27.6 mph N/A   Overcast
9:55 AM 60.8 °F 50.0 °F 68% 29.82 in 10.0 mi South 13.8 mph - N/A   Overcast
10:15 AM 62.6 °F 50.0 °F 63% 29.82 in 10.0 mi South 19.6 mph 23.0 mph N/A   Overcast
10:35 AM 62.6 °F 51.8 °F 68% 29.81 in 10.0 mi South 16.1 mph 24.2 mph N/A   Scattered Clouds
10:55 AM 62.6 °F 51.8 °F 68% 29.81 in 10.0 mi South 21.9 mph 27.6 mph N/A   Clear
11:15 AM 62.6 °F 53.6 °F 72% 29.80 in 10.0 mi South 18.4 mph - N/A   Clear
11:35 AM 64.4 °F 53.6 °F 68% 29.79 in 10.0 mi South 17.3 mph 24.2 mph N/A   Clear
11:55 AM 64.4 °F 53.6 °F 68% 29.78 in 10.0 mi South 19.6 mph 23.0 mph N/A   Clear
12:15 PM 64.4 °F 53.6 °F 68% 29.78 in 10.0 mi South 17.3 mph 21.9 mph N/A   Clear
12:35 PM 66.2 °F 55.4 °F 68% 29.77 in 10.0 mi SSE 13.8 mph 23.0 mph N/A   Clear
12:55 PM 66.2 °F 55.4 °F 68% 29.77 in 10.0 mi South 15.0 mph 24.2 mph N/A   Clear
1:15 PM 66.2 °F 55.4 °F 68% 29.76 in 10.0 mi South 13.8 mph - N/A   Partly Cloudy
1:35 PM 66.2 °F 55.4 °F 68% 29.75 in 10.0 mi SSE 18.4 mph 25.3 mph N/A   Partly Cloudy
1:55 PM 66.2 °F 55.4 °F 68% 29.74 in 10.0 mi South 17.3 mph 25.3 mph N/A   Clear
2:15 PM 68.0 °F 55.4 °F 64% 29.73 in 10.0 mi SSE 16.1 mph 23.0 mph N/A   Clear
2:35 PM 66.2 °F 55.4 °F 68% 29.72 in 10.0 mi SSE 16.1 mph 23.0 mph N/A   Clear
2:55 PM 66.2 °F 55.4 °F 68% 29.72 in 10.0 mi South 17.3 mph 21.9 mph N/A   Scattered Clouds
3:15 PM 64.4 °F 55.4 °F 73% 29.73 in 10.0 mi SSE 17.3 mph 25.3 mph N/A   Mostly Cloudy
3:35 PM 64.4 °F 55.4 °F 73% 29.73 in 10.0 mi South 17.3 mph 23.0 mph N/A   Overcast
3:55 PM 62.6 °F 55.4 °F 77% 29.73 in 10.0 mi South 16.1 mph 23.0 mph N/A   Overcast
4:15 PM 62.6 °F 55.4 °F 77% 29.73 in 10.0 mi SSE 13.8 mph - N/A   Overcast
4:35 PM 62.6 °F 55.4 °F 77% 29.72 in 10.0 mi SSE 10.4 mph - N/A   Overcast
4:55 PM 62.6 °F 55.4 °F 77% 29.73 in 10.0 mi SSE 10.4 mph 16.1 mph N/A   Overcast
5:15 PM 62.6 °F 55.4 °F 77% 29.73 in 10.0 mi SSE 10.4 mph - N/A   Overcast
5:35 PM 62.6 °F 55.4 °F 77% 29.73 in 10.0 mi SSE 9.2 mph - N/A   Overcast
5:55 PM 62.6 °F 57.2 °F 82% 29.73 in 10.0 mi SE 8.1 mph - N/A   Overcast
6:15 PM 62.6 °F 57.2 °F 82% 29.74 in 10.0 mi SE 11.5 mph - N/A   Overcast
6:35 PM 62.6 °F 55.4 °F 77% 29.74 in 10.0 mi SE 8.1 mph - N/A   Overcast
6:55 PM 62.6 °F 55.4 °F 77% 29.75 in 10.0 mi SE 8.1 mph - N/A   Overcast
7:15 PM 62.6 °F 55.4 °F 77% 29.76 in 10.0 mi SE 9.2 mph - N/A   Overcast
7:35 PM 62.6 °F 55.4 °F 77% 29.77 in 10.0 mi ESE 5.8 mph - N/A   Overcast
7:55 PM 60.8 °F 55.4 °F 82% 29.77 in 10.0 mi SE 8.1 mph - N/A   Overcast
8:15 PM 60.8 °F 57.2 °F 88% 29.77 in 10.0 mi SE 9.2 mph - N/A   Overcast
8:35 PM 60.8 °F 57.2 °F 88% 29.78 in 10.0 mi SE 9.2 mph - N/A   Overcast
8:55 PM 60.8 °F 57.2 °F 88% 29.78 in 10.0 mi SE 10.4 mph - N/A   Overcast
9:15 PM 60.8 °F 57.2 °F 88% 29.79 in 10.0 mi SE 10.4 mph - N/A   Overcast
9:35 PM 60.8 °F 57.2 °F 88% 29.79 in 10.0 mi SE 10.4 mph - N/A   Overcast
9:55 PM 60.8 °F 57.2 °F 88% 29.80 in 10.0 mi SE 11.5 mph - N/A   Overcast
10:15 PM 59.0 °F 57.2 °F 94% 29.80 in 10.0 mi SE 6.9 mph - N/A   Overcast
10:35 PM 60.8 °F 57.2 °F 88% 29.80 in 10.0 mi SE 8.1 mph - N/A   Overcast
10:55 PM 59.0 °F 57.2 °F 94% 29.80 in 10.0 mi ESE 8.1 mph - N/A   Overcast
11:15 PM 59.0 °F 57.2 °F 94% 29.80 in 10.0 mi ESE 8.1 mph - N/A   Overcast
11:35 PM 59.0 °F 57.2 °F 94% 29.79 in 10.0 mi East 6.9 mph - N/A   Overcast
11:55 PM 59.0 °F 57.2 °F 94% 29.78 in 10.0 mi East 8.1 mph - N/A   Overcast